2022 TE14
ephemeris date magn radius delta ra dec elong phase
Today4 Sep 202627.52.740 AU2.488 AU16h53m-21°02'93.4°21.6°
2022 TE14 - 2026-09-04
astro.vanbuitenen.nl


 
-1 year
-1 month
-1 day
Now
+1 day
+1 month
+1 year

The interactive orbit chart above shows the body's path through the solar system and its position at the given date. Green and blue lines are shown perpendicular to the ecliptic plane: Green if the path is above the ecliptic plane, blue if it is below. (Left-click and drag to rotate the view; Right-click and drag to move the view; Use scroll wheel to zoom in our out.)

The orbital elements of 2022 TE14 are:

            e (Eccentricity)                : 0.4845872
            a (Semimajor axis)              : 1.8664912
            i (Inclination)                 : 2.44304
            Ω (Longitude of ascending node) : 130.18458
            ω (Argument of perihelion)      : 334.84339
            M (Mean anomaly)                : 123.96434
            Epoch                           : 2026 Jun 09

            L (Longitude of perihelion)     : 105.04801
            B (Latitude of perihelion)      : -1.03826
            P (Orbital period in years)     : 2.55            
        

The light curve chart below shows the estimated development of the minor planet's magnitude.


The all-sky chart below shows the path of the minor planet over the same period as the light curve. The current position is marked yellow.





The following chart shows the path of the minor planet in the next few days. The field of view is optimized for (~10x50) binoculars and finderscopes.




Ephemerides:
Date       Time       RA (2000)    DEC (2000)    delta   radius  elong  phase   PA    magn
2026-09-04 00:00 UT   16 53 33.0   -21 02 33     2.488    2.740   93.4   21.6    97   27.5 
2026-09-04 18:33 UT   16 54 03.1   -21 04 03     2.500    2.740   92.8   21.6    97   27.5 
2026-09-05 00:00 UT   16 54 12.0   -21 04 29     2.503    2.741   92.6   21.6    97   27.5 
2026-09-06 00:00 UT   16 54 52.2   -21 06 25     2.519    2.742   91.8   21.6    96   27.5 
2026-09-07 00:00 UT   16 55 33.4   -21 08 21     2.534    2.743   91.0   21.6    96   27.6 
2026-09-08 00:00 UT   16 56 15.8   -21 10 18     2.549    2.744   90.2   21.5    96   27.6 
2026-09-09 00:00 UT   16 56 59.3   -21 12 16     2.564    2.745   89.4   21.5    96   27.6 
2026-09-10 00:00 UT   16 57 43.9   -21 14 13     2.580    2.746   88.6   21.5    96   27.6 
2026-09-11 00:00 UT   16 58 29.6   -21 16 11     2.595    2.747   87.8   21.5    96   27.6 
2026-09-12 00:00 UT   16 59 16.3   -21 18 09     2.610    2.748   87.0   21.5    96   27.6 
2026-09-13 00:00 UT   17 00 04.1   -21 20 07     2.625    2.749   86.2   21.4    96   27.6 
2026-09-14 00:00 UT   17 00 52.9   -21 22 06     2.640    2.749   85.4   21.4    96   27.6 
2026-09-15 00:00 UT   17 01 42.7   -21 24 04     2.656    2.750   84.6   21.4    96   27.7 
2026-09-16 00:00 UT   17 02 33.4   -21 26 01     2.671    2.751   83.9   21.3    96   27.7 
2026-09-17 00:00 UT   17 03 25.2   -21 27 59     2.686    2.752   83.1   21.3    95   27.7 
2026-09-18 00:00 UT   17 04 17.9   -21 29 56     2.701    2.753   82.3   21.2    95   27.7 
2026-09-19 00:00 UT   17 05 11.5   -21 31 53     2.716    2.754   81.6   21.2    95   27.7 
2026-09-20 00:00 UT   17 06 06.1   -21 33 49     2.731    2.754   80.8   21.1    95   27.7 
2026-09-21 00:00 UT   17 07 01.6   -21 35 45     2.745    2.755   80.0   21.0    95   27.7 
2026-09-22 00:00 UT   17 07 58.0   -21 37 40     2.760    2.756   79.3   21.0    95   27.7 
2026-09-23 00:00 UT   17 08 55.2   -21 39 35     2.775    2.757   78.5   20.9    95   27.7 
2026-09-24 00:00 UT   17 09 53.3   -21 41 28     2.790    2.757   77.8   20.8    95   27.8 
2026-09-25 00:00 UT   17 10 52.3   -21 43 21     2.804    2.758   77.0   20.8    95   27.8 
2026-09-26 00:00 UT   17 11 52.1   -21 45 13     2.819    2.759   76.3   20.7    94   27.8 
2026-09-27 00:00 UT   17 12 52.7   -21 47 04     2.834    2.760   75.5   20.6    94   27.8 
2026-09-28 00:00 UT   17 13 54.1   -21 48 54     2.848    2.760   74.8   20.5    94   27.8 
2026-09-29 00:00 UT   17 14 56.3   -21 50 43     2.863    2.761   74.1   20.4    94   27.8 
2026-09-30 00:00 UT   17 15 59.3   -21 52 31     2.877    2.761   73.3   20.3    94   27.8 
2026-10-01 00:00 UT   17 17 03.0   -21 54 17     2.891    2.762   72.6   20.2    94   27.8 
2026-10-02 00:00 UT   17 18 07.6   -21 56 02     2.905    2.763   71.8   20.1    94   27.8 
2026-10-03 00:00 UT   17 19 12.8   -21 57 46     2.920    2.763   71.1   20.0    94   27.8 
2026-10-04 00:00 UT   17 20 18.9   -21 59 29     2.934    2.764   70.4   19.9    94   27.8 


    Terminology:
            
    delta:  distance between minor planet and earth in AU
    radius: distance between minor planet and sun in AU
    magn:   magnitude (brightness) estimate    
    ra:     right ascension in hours (24h = 360deg)
    dec:    declination in degrees
    elong:  elongation in degrees (angle sun-earth-minor planet)    
    phase:  phase angle in degrees (angle sun-minor planet-earth)        
    AU:     Astronomical Unit (mean distance between earth and sun: 149597870.7 km
    

Orbital elements provided by the MPC (Minor Planet Center).
Calculations by a modified version of AAPlus, a C# implementation of the AA+ project by PJ Naughter from the algorithms presented in the book "Astronomical Algorithms" by Jean Meeus.
NGC2000 dso catalog and star labels from VizieR as provided by the Strasbourg astronomical Data Center.
Tycho2 catalog from the ESO archive.